User: anonymous   Login
Location: Tucson
(32.2217°N, 110.9265°W)
Time: 02:09:09
(UTC-07:00)
Language:

Explorer 11/Cluster Stage 4 - Orbit

View from above orbital plane
View from above orbital plane
View from above satellite
View from above satellite

Ground track
Ground track

The orbit data is extracted from the following two-line orbital elements,

1 00107U 61013A   21293.64900249  .00001107  00000-0  12690-3 0  9990
2 00107  28.7913 292.2511 0545014 264.0616  89.7608 14.09337453 35438
Epoch (UTC): 20 October 2021 15:34:33
Eccentricity: 0.0545014
inclination: 28.7913°
perigee height: 467 km
apogee height: 1256 km
right ascension of ascending node: 292.2511°
argument of perigee: 264.0616°
revolutions per day: 14.09337453
mean anomaly at epoch: 89.7608°
orbit number at epoch: 3543

The dashed part of the orbit path shows where the satellite is in the earth's shadow,  

DLR